Location: Newark
(44.3482°N, 5.8373°E)
Time: 03:56:47
(UTC+00:00)

N. Korean satellite - Visible Passes

Search period start: 11 December 2019 00:00
Search period end: 21 December 2019 00:00
Orbit: 455 x 506 km, 97.2° (Epoch: 10 December)

Date Brightness Start Highest point End Pass type
(mag) Time Alt. Az. Time Alt. Az. Time Alt. Az.
11 Dec 9.5 04:38:05 10° NE 04:40:27 17° E 04:42:47 10° SE visible
11 Dec 7.3 06:10:48 10° N 06:13:55 30° WNW 06:16:59 10° SW visible
11 Dec 7.0 16:46:52 10° S 16:50:33 68° W 16:54:14 10° NNW visible
12 Dec 6.4 05:45:05 10° N 05:48:35 63° WNW 05:52:01 10° SSW visible
12 Dec 10.3 17:58:08 10° W 17:58:52 10° W 17:59:36 10° WNW visible
13 Dec 7.1 05:19:40 10° NNE 05:23:09 57° E 05:26:33 10° S visible
13 Dec 9.5 17:30:24 10° SW 17:33:13 20° W 17:36:02 10° NW visible
14 Dec 8.7 04:54:36 10° NE 04:57:37 26° E 05:00:35 10° SSE visible
14 Dec 7.9 06:28:18 10° NNW 06:30:51 19° WNW 06:33:22 10° WSW visible
14 Dec 8.1 17:04:10 10° S 17:07:40 40° W 17:11:09 10° NNW visible
15 Dec 9.8 04:30:12 10° ENE 04:31:59 13° E 04:33:46 10° ESE visible
15 Dec 7.0 06:02:18 10° N 06:05:34 37° WNW 06:08:46 10° SW visible
15 Dec 6.7 16:38:30 10° SSE 16:42:12 86° WSW 16:45:52 10° NNW visible
16 Dec 6.3 05:36:42 10° N 05:40:12 82° WNW 05:43:38 10° SSW visible
16 Dec 10.0 17:48:39 10° WSW 17:50:25 13° W 17:52:11 10° WNW visible
17 Dec 7.7 05:11:22 10° NNE 05:14:43 44° E 05:18:01 10° S visible
17 Dec 9.1 17:21:44 10° SSW 17:24:48 25° W 17:27:52 10° NW visible
18 Dec 9.1 04:46:27 10° NE 04:49:10 21° E 04:51:50 10° SE visible
18 Dec 7.6 06:19:41 10° NNW 06:22:31 23° WNW 06:25:17 10° WSW visible
18 Dec 7.6 16:55:41 10° S 16:59:16 51° W 17:02:50 10° NNW visible
19 Dec 10.1 04:22:46 10° ENE 04:23:29 10° E 04:24:13 10° ESE visible
19 Dec 6.6 05:53:50 10° N 05:57:11 47° WNW 06:00:29 10° SSW visible
19 Dec 6.5 16:30:09 10° SSE 16:33:49 75° ENE 16:37:26 10° N visible
20 Dec 6.5 05:28:18 10° NNE 05:31:47 77° ESE 05:35:12 10° S visible
20 Dec 9.8 17:39:40 10° SW 17:41:57 16° W 17:44:15 10° NW visible
